Location: California Mobile Home Park
(33.7461°N, 117.9092°W)
Time: 19:40:33
(UTC+00:00)

Cosmos 371 Rocket - Pass Details

Date: 29 June 2022
Orbit: 684 x 698 km, 74.0° (Epoch: 07 August)

Event Time Altitude Azimuth Distance (km) Brightness Sun altitude
Rises 12:14:37 0° 341° (NNW) 3,052 6.8 -6.1°
Reaches altitude 10° 12:16:56 10° 339° (NNW) 2,134 6.0 -5.7°
Maximum altitude 12:21:43 75° 255° (WSW) 713 3.3 -4.8°
Drops below altitude 10° 12:26:30 10° 170° (S) 2,129 5.6 -4.0°
Sets 12:28:48 0° 169° (S) 3,043 6.4 -3.6°
